• In Uzbekistan
  • List of Countries
  • For 7 days
  • Water Temperature
  • Weather Map
  • Weather Widgets
  • user-avatar
    Login

    Hourly Weather Cumaná

    Today, 26 January, Sunday

    Time Temperature Precipitation Wind Pressure Humidity
    00:00 +24°C° 0 mm 2 mps 752 mmHg 89%
    01:00 +24°C° 0 mm 1 mps 752 mmHg 87%
    02:00 +24°C° 0 mm 1 mps 751 mmHg 86%
    03:00 +24°C° 0 mm 1 mps 751 mmHg 84%
    04:00 +24°C° 0 mm 2 mps 751 mmHg 82%
    05:00 +24°C° 0 mm 2 mps 752 mmHg 80%
    06:00 +25°C° 0 mm 2 mps 752 mmHg 77%
    07:00 +26°C° 0 mm 1 mps 753 mmHg 73%
    08:00 +26°C° 0 mm 1 mps 753 mmHg 70%
    09:00 +29°C° 0 mm 1 mps 753 mmHg 64%
    10:00 +31°C° 0 mm 2 mps 753 mmHg 58%
    11:00 +34°C° 0 mm 2 mps 754 mmHg 52%
    12:00 +32°C° 0.1 mm 2 mps 753 mmHg 56%
    13:00 +32°C° 0.1 mm 2 mps 752 mmHg 61%
    14:00 +32°C° 0.1 mm 2 mps 751 mmHg 65%
    15:00 +31°C° 0.2 mm 2 mps 751 mmHg 73%
    16:00 +29°C° 0.2 mm 2 mps 751 mmHg 81%
    17:00 +28°C° 0.2 mm 2 mps 751 mmHg 88%
    18:00 +27°C° 0.2 mm 2 mps 751 mmHg 90%
    19:00 +27°C° 0.2 mm 3 mps 751 mmHg 93%
    20:00 +26°C° 0.2 mm 3 mps 752 mmHg 95%
    21:00 +26°C° 0 mm 3 mps 752 mmHg 94%
    22:00 +25°C° 0 mm 3 mps 752 mmHg 92%
    23:00 +25°C° 0 mm 4 mps 752 mmHg 91%

    Tomorrow, 27 January, Monday

    Time Temperature Precipitation Wind Pressure Humidity
    00:00 +25°C° 0 mm 4 mps 752 mmHg 90%
    01:00 +25°C° 0 mm 4 mps 752 mmHg 88%
    02:00 +23°C° 0 mm 4 mps 751 mmHg 87%
    03:00 +24°C° 0 mm 3 mps 751 mmHg 86%
    04:00 +24°C° 0 mm 3 mps 751 mmHg 85%
    05:00 +22°C° 0 mm 3 mps 751 mmHg 84%
    06:00 +24°C° 0 mm 3 mps 752 mmHg 80%
    07:00 +25°C° 0 mm 2 mps 753 mmHg 77%
    08:00 +26°C° 0 mm 2 mps 753 mmHg 73%
    09:00 +28°C° 0 mm 2 mps 753 mmHg 65%
    10:00 +31°C° 0 mm 3 mps 753 mmHg 56%
    11:00 +34°C° 0 mm 3 mps 754 mmHg 47%
    12:00 +34°C° 0 mm 3 mps 753 mmHg 48%
    13:00 +34°C° 0 mm 3 mps 752 mmHg 49%
    14:00 +35°C° 0 mm 3 mps 752 mmHg 51%
    15:00 +33°C° 0 mm 4 mps 751 mmHg 57%
    16:00 +32°C° 0 mm 4 mps 750 mmHg 63%
    17:00 +30°C° 0 mm 4 mps 750 mmHg 69%
    18:00 +29°C° 0 mm 4 mps 750 mmHg 76%
    19:00 +27°C° 0 mm 4 mps 751 mmHg 83%
    20:00 +26°C° 0 mm 4 mps 752 mmHg 89%
    21:00 +26°C° 0 mm 4 mps 752 mmHg 88%
    22:00 +26°C° 0 mm 4 mps 752 mmHg 86%
    23:00 +26°C° 0 mm 4 mps 753 mmHg 85%

    Day after tomorrow, 28 January, Tuesday

    Time Temperature Precipitation Wind Pressure Humidity
    00:00 +25°C° 0 mm 4 mps 752 mmHg 86%
    01:00 +25°C° 0 mm 4 mps 752 mmHg 86%
    02:00 +23°C° 0 mm 4 mps 752 mmHg 87%
    03:00 +24°C° 0 mm 3 mps 751 mmHg 87%
    04:00 +24°C° 0 mm 3 mps 751 mmHg 86%
    05:00 +24°C° 0 mm 2 mps 751 mmHg 85%
    06:00 +25°C° 0 mm 2 mps 751 mmHg 81%
    07:00 +26°C° 0 mm 2 mps 752 mmHg 77%
    08:00 +27°C° 0 mm 2 mps 752 mmHg 73%
    09:00 +29°C° 0 mm 2 mps 753 mmHg 66%
    10:00 +31°C° 0 mm 2 mps 753 mmHg 58%
    11:00 +34°C° 0 mm 2 mps 753 mmHg 51%
    12:00 +34°C° 0 mm 2 mps 752 mmHg 54%
    13:00 +34°C° 0 mm 2 mps 751 mmHg 57%
    14:00 +34°C° 0 mm 2 mps 751 mmHg 60%
    15:00 +32°C° 0.1 mm 2 mps 750 mmHg 67%
    16:00 +31°C° 0.1 mm 3 mps 750 mmHg 75%
    17:00 +30°C° 0.1 mm 3 mps 749 mmHg 82%
    18:00 +29°C° 0 mm 3 mps 750 mmHg 86%
    19:00 +27°C° 0 mm 4 mps 750 mmHg 91%
    20:00 +26°C° 0 mm 4 mps 751 mmHg 96%
    21:00 +26°C° 0 mm 4 mps 751 mmHg 95%
    22:00 +26°C° 0 mm 4 mps 751 mmHg 94%
    23:00 +26°C° 0 mm 3 mps 752 mmHg 94%

    29 January, Wednesday

    Time Temperature Precipitation Wind Pressure Humidity
    00:00 +25°C° 0 mm 3 mps 751 mmHg 93%
    01:00 +25°C° 0 mm 3 mps 751 mmHg 92%
    02:00 +25°C° 0 mm 3 mps 750 mmHg 91%
    03:00 +25°C° 0 mm 3 mps 750 mmHg 91%
    04:00 +25°C° 0 mm 3 mps 750 mmHg 91%
    05:00 +24°C° 0 mm 2 mps 750 mmHg 91%
    06:00 +25°C° 0 mm 2 mps 751 mmHg 88%
    07:00 +26°C° 0 mm 2 mps 752 mmHg 85%
    08:00 +27°C° 0 mm 1 mps 752 mmHg 83%
    09:00 +29°C° 0 mm 1 mps 752 mmHg 74%
    10:00 +31°C° 0 mm 2 mps 752 mmHg 66%
    11:00 +34°C° 0 mm 2 mps 752 mmHg 57%
    12:00 +34°C° 0.1 mm 2 mps 752 mmHg 63%
    13:00 +32°C° 0.1 mm 2 mps 751 mmHg 69%
    14:00 +31°C° 0.1 mm 2 mps 751 mmHg 75%
    15:00 +31°C° 0.2 mm 2 mps 750 mmHg 79%
    16:00 +30°C° 0.2 mm 2 mps 750 mmHg 84%
    17:00 +29°C° 0.2 mm 2 mps 749 mmHg 88%
    18:00 +28°C° 0.2 mm 3 mps 750 mmHg 91%
    19:00 +27°C° 0.2 mm 3 mps 750 mmHg 94%
    20:00 +26°C° 0.2 mm 3 mps 751 mmHg 97%
    21:00 +26°C° 0 mm 3 mps 751 mmHg 96%
    22:00 +26°C° 0 mm 3 mps 751 mmHg 94%
    23:00 +25°C° 0 mm 3 mps 751 mmHg 93%

    30 January, Thursday

    Time Temperature Precipitation Wind Pressure Humidity
    00:00 +25°C° 0 mm 3 mps 751 mmHg 93%
    01:00 +25°C° 0 mm 3 mps 751 mmHg 92%
    02:00 +24°C° 0 mm 3 mps 750 mmHg 92%
    03:00 +24°C° 0 mm 3 mps 750 mmHg 91%
    04:00 +24°C° 0 mm 3 mps 750 mmHg 90%
    05:00 +24°C° 0 mm 2 mps 750 mmHg 90%
    06:00 +25°C° 0 mm 2 mps 751 mmHg 87%
    07:00 +26°C° 0 mm 2 mps 752 mmHg 85%
    08:00 +27°C° 0 mm 2 mps 752 mmHg 82%
    09:00 +29°C° 0 mm 2 mps 752 mmHg 74%
    10:00 +31°C° 0 mm 2 mps 752 mmHg 66%
    11:00 +34°C° 0 mm 2 mps 753 mmHg 58%
    12:00 +32°C° 0.2 mm 2 mps 752 mmHg 66%
    13:00 +31°C° 0.2 mm 2 mps 751 mmHg 74%
    14:00 +30°C° 0.2 mm 2 mps 751 mmHg 82%
    15:00 +30°C° 0.2 mm 3 mps 750 mmHg 84%
    16:00 +29°C° 0.2 mm 3 mps 750 mmHg 86%
    17:00 +29°C° 0.2 mm 4 mps 750 mmHg 88%
    18:00 +28°C° 0 mm 4 mps 750 mmHg 91%
    19:00 +27°C° 0 mm 4 mps 751 mmHg 94%
    20:00 +26°C° 0 mm 5 mps 751 mmHg 96%
    21:00 +25°C° 0 mm 5 mps 751 mmHg 94%
    22:00 +25°C° 0 mm 5 mps 752 mmHg 92%
    23:00 +23°C° 0 mm 5 mps 752 mmHg 89%

    31 January, Friday

    Time Temperature Precipitation Wind Pressure Humidity
    00:00 +23°C° 0 mm 5 mps 752 mmHg 88%
    01:00 +23°C° 0 mm 5 mps 751 mmHg 87%
    02:00 +23°C° 0 mm 4 mps 751 mmHg 85%
    03:00 +23°C° 0 mm 4 mps 751 mmHg 85%
    04:00 +23°C° 0 mm 4 mps 751 mmHg 84%
    05:00 +22°C° 0 mm 3 mps 751 mmHg 83%
    06:00 +24°C° 0 mm 3 mps 752 mmHg 79%
    07:00 +25°C° 0 mm 3 mps 752 mmHg 76%
    08:00 +26°C° 0 mm 3 mps 753 mmHg 73%
    09:00 +28°C° 0 mm 3 mps 753 mmHg 65%
    10:00 +30°C° 0 mm 3 mps 753 mmHg 58%
    11:00 +34°C° 0 mm 3 mps 753 mmHg 50%
    12:00 +34°C° 0 mm 4 mps 752 mmHg 50%
    13:00 +34°C° 0 mm 4 mps 752 mmHg 51%
    14:00 +35°C° 0 mm 4 mps 751 mmHg 51%
    15:00 +33°C° 0 mm 5 mps 751 mmHg 59%
    16:00 +32°C° 0 mm 5 mps 750 mmHg 68%
    17:00 +30°C° 0 mm 5 mps 750 mmHg 76%
    18:00 +29°C° 0 mm 5 mps 750 mmHg 82%
    19:00 +27°C° 0 mm 5 mps 751 mmHg 88%
    20:00 +26°C° 0 mm 5 mps 751 mmHg 95%
    21:00 +25°C° 0 mm 5 mps 752 mmHg 88%
    22:00 +23°C° 0 mm 5 mps 752 mmHg 81%
    23:00 +23°C° 0 mm 5 mps 752 mmHg 75%
    Show more